238  
ASUS41 KGYX 291505  
RWRGYX  
WEATHER ROUNDUP FOR MAINE AND NEW HAMPSHIRE  
NATIONAL WEATHER SERVICE GRAY ME  
1100 AM EDT WED MAR 29 2017  
 
MEZ002-005-006-010-012-015-018-020-021-024-026-027-029-291600-  
MAINE  
 
CITY SKY/WX TMP DP RH WIND PRES REMARKS
 
PORTLAND CLOUDY 40 34 79 N8 30.03R  
SANFORD CLOUDY 40 34 79 VRB3 30.03S  
BAR HARBOR MIX PCPN 37 32 82 N13 29.99S  
WISCASSET CLOUDY 41 34 76 VRB6 30.02S  
ROCKLAND CLOUDY 38 33 82 VRB7 29.99S  
FRYEBURG CLOUDY 40 25 55 N9 30.03R  
LEWISTONAUBURN CLOUDY 40 35 83 NE10 30.01F  
AUGUSTA CLOUDY 38 29 70 N13 30.01R  
WATERVILLE CLOUDY 39 34 82 N8 29.98S  
BANGOR CLOUDY 36 30 79 N15 30.01R  
GREENVILLE N/A 31 29 92 N9 29.95S  
MILLINOCKET CLOUDY 35 30 82 N9 30.02R  
HOULTON CLOUDY 32 28 85 N10 29.99S  
PRESQUE ISLE CLOUDY 31 28 89 N10 30.02F  
FRENCHVILLE CLOUDY 29 24 82 N5 29.99F  
CARIBOU CLOUDY 30 25 81 N5 30.00F  

 
 
NHZ002-005-008-009-011-012-014-291600-  
NEW HAMPSHIRE  
 
CITY SKY/WX TMP DP RH WIND PRES REMARKS
 
PORTSMOUTH CLOUDY 42 35 78 N8 30.02S  
ROCHESTER CLOUDY 42 33 70 NW6 30.01S  
NASHUA CLOUDY 43 33 68 N7 30.04S  
MANCHESTER CLOUDY 43 31 62 N14 30.02F  
CONCORD CLOUDY 44 32 62 NW14G21 30.03S  
LACONIA PTSUNNY 43 28 55 NW12G20 30.03R  
PLYMOUTH CLOUDY 41 28 59 NW12G20 30.05R  
BERLIN CLOUDY 36 21 54 NW10G20 30.03R  
WHITEFIELD CLOUDY 36 26 67 NW8 30.06R  
JAFFREY CLOUDY 41 30 65 NW8 30.03R  
KEENE CLOUDY 42 31 64 N15 30.06R  
LEBANON CLOUDY 39 30 70 N10 30.07F  
MT WASHINGTON FOG 16 16 100 W31 N/A VSB 0 WCI -5  

 
 
VTZ005-007-008-291600-  
VERMONT  
 
CITY SKY/WX TMP DP RH WIND PRES REMARKS
 
ST JOHNSBURY N/A 37 25 61 MISG 30.07R  
MONTPELIER CLOUDY 34 27 75 NW7 30.12S  
BURLINGTON CLOUDY 38 28 67 N10 30.14S  

 
 
MAZ007-012-024-CTZ003-RIZ002-NYZ038-NYZ072-291600-  
SOUTHERN NEW ENGLAND AND NY  
 
CITY SKY/WX TMP DP RH WIND PRES REMARKS
 
BOSTON CLOUDY 41 38 89 N12 30.04R  
WORCESTER CLOUDY 41 30 65 N13G20 30.01R  
NANTUCKET CLOUDY 42 38 85 N21G30 29.95R FOG  
PROVIDENCE CLOUDY 43 37 79 N17G24 30.02S  
HARTFORD PTSUNNY 47 33 58 N12 30.06S  
ALBANY CLOUDY 40 35 83 N6 30.14R  
NEW YORK CITY PTSUNNY 49 36 61 NW9 30.08R  

 
 
ANZ081-ANZ082-ANZ150-NHZ014-MEZ023>029-291600-  
COASTAL MARINE OBSERVATIONS  
 
STATION/POSITION TIME TEMP WIND PRES WAVE
 
AIR SEA DIR/SP/G HT/PER  
(UTC) (F) (DEG/KT/KT) (MB) (FT/S)  
MOUNT DESERT ROC 1500 35 1014.8S  
MATINICUS ROCK 1400 36 360/ 17/ 18 1014.6R  
ISLE OF SHOALS 1400 38 360/ 14/ 15 1016.5R  
JEFFREYS LEDGE 1406 40 N/A 5/ 5  
CASHES LEDGE BUO 1350 38 40 1014.4 5/ 5  
GEORGES BANK BUO 1350 39 40 1005.7 6/ 8  

 
   
............KEY...........
 
 
WCI - WIND CHILL  
TC - TEMPERATURE IN CELSIUS  
VSB - VISIBILITY
IN MILES  
HX - HEAT INDEX  
FAIR- INDICATES FEW OR NO CLOUDS BELOW 12,000 FT, WITH NO  
SIGNIFICANT WEATHER AND/OR S TO VISIBILITY.  
 
 
 
CLICK HERE TO GO TO PREVIOUS BULLETINS.

The Nexlab ME Page
The Nexlab NH Page Main Text Page